Latest Weather Observations for Meekatharra

IDW60801

Issued at 10:33 am WST Monday 22 December 2014 (issued every 30 minutes, with the page automatically refreshed every 10 minutes)

About weather observations | Map of weather stations | Latest weather observations for WA | Other Formats
Station Details ID: 007045 Name: MEEKATHARRA AIRPORT Lat: -26.61 Lon: 118.54 Height: 517.0 m
Data from the previous 72 hours. | See also: Recent months at Meekatharra
Date/Time
WST
Temp
°C
App
Temp
°C
Dew
Point
Rel
Hum
%
Delta-T
°C
Wind Press
QNH
hPa
Press
MSL
hPa
Rain
since 9 am
mm
Dir
 
Spd
km/h
Gust
km/h
Spd
kts
Gust
kts
22/10:00am 29.1 24.9 7.6 26 11.9 ESE 19 26 10 14 1013.6 - 0.0
22/09:30am 28.8 24.9 8.7 28 11.3 ESE 19 28 10 15 1013.7 - 0.0
22/09:00am 27.3 23.6 10.0 33 9.9 ESE 20 35 11 19 1014.1 1010.2 0.0
22/08:30am 27.0 23.0 10.5 35 9.5 ESE 22 32 12 17 1014.2 - 0.0
22/08:00am 25.6 21.3 10.6 39 8.6 E 24 32 13 17 1014.2 - 0.0
22/07:30am 24.4 20.0 11.6 44 7.4 E 26 35 14 19 1014.3 - 0.0
22/06:30am 22.6 18.4 12.5 53 5.9 E 26 35 14 19 1013.9 - 0.0
22/06:00am 21.9 18.2 12.8 56 5.3 E 24 35 13 19 1013.7 1009.9 0.0
22/05:30am 21.5 18.6 12.9 58 5.0 E 20 28 11 15 1013.4 - 0.0
22/05:00am 21.4 18.6 12.6 57 5.1 ESE 19 26 10 14 1013.0 - 0.0
22/04:30am 21.6 18.8 12.5 56 5.3 ESE 19 24 10 13 1012.8 - 0.0
22/04:00am 21.9 19.0 12.2 54 5.6 ESE 19 26 10 14 1012.5 - 0.0
22/03:30am 22.2 18.6 12.0 52 5.9 ESE 22 32 12 17 1012.4 - 0.0
22/03:00am 22.6 18.9 11.4 49 6.4 ESE 22 30 12 16 1012.3 1008.4 0.0
22/02:30am 23.0 18.0 10.9 46 6.9 ESE 28 37 15 20 1012.0 - 0.0
22/02:00am 23.4 19.5 10.9 45 7.1 ESE 22 32 12 17 1011.8 - 0.0
22/01:30am 23.8 18.6 10.1 42 7.7 ESE 28 43 15 23 1012.0 - 0.0
22/01:00am 24.2 18.9 9.8 40 8.1 SE 28 44 15 24 1012.1 - 0.0
22/12:30am 24.8 19.7 9.2 37 8.7 SE 26 41 14 22 1012.2 - 0.0
22/12:00am 25.4 20.2 8.8 35 9.2 SE 26 41 14 22 1012.2 1008.3 0.0
 
Date/Time
WST
Temp
°C
App
Temp
°C
Dew
Point
Rel
Hum
%
Delta-T
°C
Wind Press
QNH
hPa
Press
MSL
hPa
Rain
since 9 am
mm
Dir
 
Spd
km/h
Gust
km/h
Spd
kts
Gust
kts
21/11:34pm 25.8 19.4 9.2 35 9.3 SE 33 54 18 29 1012.3 - 0.0
21/11:30pm 25.9 19.4 9.1 34 9.4 SE 33 46 18 25 1012.3 - 0.0
21/11:00pm 26.7 20.8 9.0 32 9.9 SE 30 44 16 24 1012.3 - 0.0
21/10:30pm 27.6 21.9 8.4 29 10.7 SSE 28 46 15 25 1012.1 - 0.0
21/10:24pm 27.8 22.1 8.2 29 10.9 SSE 28 46 15 25 1012.1 - 0.0
21/10:00pm 28.7 22.1 7.8 27 11.6 SSE 32 44 17 24 1011.7 - 0.0
21/09:30pm 29.6 23.9 6.8 23 12.5 SSE 26 37 14 20 1011.3 - 0.0
21/09:00pm 29.9 24.0 5.6 21 13.1 S 26 33 14 18 1010.9 1007.0 0.0
21/08:30pm 30.5 23.6 4.8 19 13.7 S 30 39 16 21 1010.4 - 0.0
21/08:00pm 31.1 24.7 5.0 19 14.0 S 28 35 15 19 1010.1 - 0.0
21/07:30pm 31.8 25.6 4.1 17 14.7 S 26 37 14 20 1009.6 - 0.0
21/07:00pm 32.5 26.8 4.9 17 14.9 S 24 35 13 19 1009.2 - 0.0
21/06:30pm 33.5 26.6 4.7 16 15.6 S 30 43 16 23 1008.8 - 0.0
21/06:00pm 34.2 28.7 3.8 15 16.3 SSW 22 30 12 16 1008.5 1004.6 0.0
21/05:30pm 34.7 28.9 0.2 11 17.5 SSW 20 32 11 17 1008.3 - 0.0
21/05:00pm 36.1 31.2 -0.4 10 18.5 S 15 20 8 11 1008.3 - 0.0
21/04:30pm 35.4 29.8 -0.1 10 18.0 SSE 19 20 10 11 1008.6 - 0.0
21/04:00pm 35.5 31.5 0.6 11 17.9 SSW 11 22 6 12 1008.6 - 0.0
21/03:30pm 35.6 30.9 0.9 11 17.9 S 15 19 8 10 1008.8 - 0.0
21/03:00pm 35.7 28.0 -0.2 10 18.2 SSW 30 37 16 20 1009.3 1005.4 0.0
21/02:30pm 35.4 29.4 1.2 11 17.7 SSW 22 35 12 19 1009.4 - 0.0
21/02:00pm 35.7 29.3 0.7 11 18.0 SSW 24 33 13 18 1009.6 - 0.0
21/01:30pm 33.9 28.1 0.2 11 17.0 SW 20 32 11 17 1010.1 - 0.0
21/01:00pm 34.9 28.6 1.5 12 17.3 SSW 24 33 13 18 1010.4 - 0.0
21/12:30pm 34.2 29.6 3.7 15 16.3 SSW 17 30 9 16 1010.6 - 0.0
21/12:00pm 33.4 29.6 3.7 15 15.8 WSW 13 28 7 15 1010.8 1006.9 0.0
21/11:30am 33.9 28.3 1.5 13 16.7 WSW 20 24 11 13 1011.0 - 0.0
21/11:00am 31.5 29.0 6.4 20 13.8 WSW 9 19 5 10 1011.3 - 0.0
21/10:30am 32.0 28.8 6.8 20 14.0 SSE 13 22 7 12 1011.5 - 0.0
21/10:00am 30.6 28.6 11.4 30 11.4 S 13 22 7 12 1011.6 - 0.0
21/09:30am 30.3 28.6 12.6 33 10.7 S 13 20 7 11 1011.7 - 0.0
21/09:00am 28.4 26.5 13.0 38 9.3 S 15 20 8 11 1011.6 1007.8 0.0
21/08:30am 28.1 26.7 13.4 40 8.9 S 13 20 7 11 1011.6 - 0.0
21/08:00am 26.4 24.7 12.6 42 8.2 S 13 19 7 10 1011.6 - 0.0
21/07:30am 25.6 23.1 12.2 43 7.9 S 17 20 9 11 1011.7 - 0.0
21/07:00am 24.6 21.8 11.2 43 7.7 S 17 24 9 13 1011.6 - 0.0
21/06:30am 23.6 20.3 9.6 41 7.8 S 17 26 9 14 1011.4 - 0.0
21/06:00am 23.0 20.1 8.3 39 8.0 SSW 13 20 7 11 1011.2 1007.3 0.0
21/05:30am 22.6 19.5 7.4 37 8.1 S 13 19 7 10 1010.9 - 0.0
21/05:00am 22.7 19.0 6.5 35 8.5 S 15 20 8 11 1010.5 - 0.0
21/04:30am 23.0 19.2 5.9 33 8.9 S 15 20 8 11 1010.4 - 0.0
21/04:00am 23.4 19.1 5.1 30 9.4 S 17 20 9 11 1010.0 - 0.0
21/03:30am 23.8 19.4 4.6 28 9.8 S 17 22 9 12 1009.7 - 0.0
21/03:00am 24.4 19.3 4.2 27 10.3 SSW 20 28 11 15 1009.5 1005.6 0.0
21/02:30am 25.1 19.5 3.5 24 10.9 S 22 30 12 16 1009.3 - 0.0
21/02:00am 25.7 20.1 3.7 24 11.2 SSW 22 32 12 17 1009.2 - 0.0
21/01:30am 26.3 20.8 3.8 23 11.5 S 22 33 12 18 1009.3 - 0.0
21/01:00am 26.9 21.0 3.7 22 11.9 S 24 35 13 19 1009.4 - 0.0
21/12:30am 27.5 22.0 4.2 22 12.1 S 22 30 12 16 1009.5 - 0.0
21/12:00am 27.9 22.8 4.0 21 12.4 SSW 20 28 11 15 1009.5 1005.6 0.0
 
Date/Time
WST
Temp
°C
App
Temp
°C
Dew
Point
Rel
Hum
%
Delta-T
°C
Wind Press
QNH
hPa
Press
MSL
hPa
Rain
since 9 am
mm
Dir
 
Spd
km/h
Gust
km/h
Spd
kts
Gust
kts
20/11:30pm 28.7 22.7 3.2 19 13.1 SSW 24 32 13 17 1009.6 - 0.0
20/11:00pm 29.3 23.3 3.4 19 13.4 S 24 33 13 18 1009.7 - 0.0
20/10:30pm 30.0 23.6 3.1 18 13.9 SSW 26 35 14 19 1009.8 - 0.0
20/10:00pm 30.7 24.2 2.9 17 14.4 SW 26 32 14 17 1009.5 - 0.0
20/09:30pm 31.2 25.2 3.2 17 14.6 SW 24 35 13 19 1009.3 - 0.0
20/09:00pm 31.9 26.3 3.3 16 15.0 SW 22 30 12 16 1009.0 1005.1 0.0
20/08:30pm 32.3 27.1 3.5 16 15.2 SW 20 30 11 16 1008.7 - 0.0
20/08:00pm 32.8 27.2 5.6 18 14.9 SW 24 35 13 19 1008.3 - 0.0
20/07:30pm 33.4 27.5 5.8 18 15.2 SW 26 43 14 23 1007.7 - 0.0
20/07:00pm 34.3 28.2 6.7 18 15.5 WSW 28 39 15 21 1007.2 - 0.0
20/06:30pm 35.1 29.4 6.7 17 16.0 W 26 39 14 21 1007.1 - 0.0
20/06:19pm 35.5 29.1 6.9 17 16.2 WSW 30 41 16 22 1007.0 - 0.0
20/06:06pm 35.8 30.1 6.9 17 16.3 W 26 37 14 20 1006.9 - 0.0
20/06:00pm 36.1 31.7 7.2 17 16.5 W 20 30 11 16 1006.9 1003.0 0.0
20/05:30pm 36.8 30.9 7.3 16 16.9 W 28 43 15 23 1006.7 - 0.0
20/05:00pm 37.2 31.2 6.9 15 17.2 W 28 46 15 25 1006.7 - 0.0
20/04:39pm 38.0 32.0 7.0 15 17.7 W 28 46 15 25 1006.5 - 0.0
20/04:30pm 37.5 30.8 7.5 16 17.3 W 32 46 17 25 1006.6 - 0.0
20/04:00pm 38.2 31.6 7.7 15 17.6 W 32 46 17 25 1006.9 - 0.0
20/03:32pm 38.9 33.0 7.5 15 18.2 W 28 48 15 26 1007.1 - 0.0
20/03:30pm 39.3 33.8 7.4 14 18.5 W 26 39 14 21 1007.1 - 0.0
20/03:06pm 38.8 32.9 7.7 15 18.0 W 28 48 15 26 1007.3 - 0.0
20/03:00pm 38.9 32.4 8.2 15 18.0 NW 32 44 17 24 1007.5 1003.6 0.0
20/02:54pm 39.4 33.2 8.0 15 18.3 W 30 48 16 26 1007.4 - 0.0
20/02:30pm 38.8 32.6 8.0 15 17.9 W 30 41 16 22 1007.9 - 0.0
20/02:00pm 38.1 33.3 8.7 17 17.3 WNW 24 46 13 25 1008.3 - 0.0
20/01:30pm 39.8 33.6 7.8 14 18.7 NW 30 50 16 27 1008.6 - 0.0
20/01:26pm 38.6 32.4 7.8 15 17.9 NW 30 48 16 26 1008.6 - 0.0
20/01:00pm 39.4 33.6 7.9 15 18.4 WNW 28 44 15 24 1008.9 - 0.0
20/12:30pm 38.1 32.3 8.1 16 17.5 WNW 28 41 15 22 1009.2 - 0.0
20/12:11pm 38.0 32.0 7.2 15 17.7 WNW 28 48 15 26 1009.3 - 0.0
20/12:00pm 38.0 32.2 7.8 16 17.5 W 28 32 15 17 1009.5 1005.6 0.0
20/11:30am 37.5 33.5 11.7 21 15.8 NNW 24 35 13 19 1009.8 - 0.0
20/11:00am 36.8 33.4 12.5 23 15.0 NW 22 37 12 20 1010.2 - 0.0
20/10:30am 35.4 32.7 13.6 27 13.6 NNW 20 35 11 19 1010.5 - 0.0
20/10:00am 35.1 32.2 15.2 30 12.7 N 24 33 13 18 1010.7 - 0.0
20/09:30am 33.9 31.3 15.8 33 11.6 N 24 32 13 17 1010.8 - 0.0
20/09:00am 32.0 30.3 16.2 38 10.1 N 20 30 11 16 1011.1 1007.2 0.0
20/08:30am 31.2 29.2 16.4 41 9.5 N 22 32 12 17 1011.2 - 0.0
20/08:00am 30.2 29.3 16.8 44 8.6 N 17 26 9 14 1011.4 - 0.0
20/07:30am 29.0 27.7 16.8 47 7.8 N 19 28 10 15 1011.6 - 0.0
20/07:00am 27.5 25.7 17.0 52 6.7 N 22 30 12 16 1011.6 - 0.0
20/06:30am 26.3 25.6 17.4 58 5.7 NNE 17 26 9 14 1011.7 - 0.0
20/06:00am 25.1 24.6 17.8 64 4.7 NE 17 22 9 12 1011.4 1007.6 0.0
20/05:30am 24.6 24.5 17.9 66 4.3 NNE 15 22 8 12 1011.0 - 0.0
20/05:00am 24.5 24.9 18.1 67 4.1 NNE 13 20 7 11 1010.9 - 0.0
20/04:30am 24.5 25.0 18.3 68 4.0 NNE 13 17 7 9 1010.7 - 0.0
20/04:00am 24.5 25.4 18.5 69 3.9 NE 11 15 6 8 1010.5 - 0.0
20/03:30am 24.6 25.5 18.4 68 4.0 NE 11 13 6 7 1010.4 - 0.0
20/03:00am 24.8 25.7 18.3 67 4.2 NE 11 15 6 8 1010.3 1006.4 0.0
20/02:30am 25.2 25.6 18.2 65 4.5 NE 13 17 7 9 1010.6 - 0.0
20/02:00am 25.5 25.8 17.9 63 4.9 NE 13 20 7 11 1010.7 - 0.0
20/01:30am 25.7 26.1 18.1 63 4.9 NE 13 17 7 9 1010.8 - 0.0
20/01:00am 25.9 26.2 18.0 61 5.1 ENE 13 19 7 10 1011.0 - 0.0
20/12:30am 26.2 26.5 17.8 60 5.4 E 13 22 7 12 1011.2 - 0.0
20/12:00am 26.6 24.7 17.6 57 5.8 ENE 24 30 13 16 1011.1 1007.2 0.0
 
Date/Time
WST
Temp
°C
App
Temp
°C
Dew
Point
Rel
Hum
%
Delta-T
°C
Wind Press
QNH
hPa
Press
MSL
hPa
Rain
since 9 am
mm
Dir
 
Spd
km/h
Gust
km/h
Spd
kts
Gust
kts
19/11:30pm 27.0 25.4 17.5 56 6.1 ENE 22 30 12 16 1011.3 - 0.0
19/11:00pm 27.2 25.5 17.2 54 6.4 ENE 22 28 12 15 1011.4 - 0.0
19/10:30pm 27.3 25.7 17.5 55 6.3 E 22 32 12 17 1011.7 - 0.0
19/10:00pm 27.8 25.4 17.4 53 6.7 E 26 35 14 19 1012.2 - 0.0
19/09:30pm 28.4 27.5 17.7 52 6.9 E 19 26 10 14 1011.8 - 0.0
19/09:00pm 29.0 25.6 17.6 50 7.4 E 32 43 17 23 1011.4 1007.6 0.0
19/08:30pm 30.1 27.2 16.1 42 8.9 ESE 26 35 14 19 1010.9 - 0.0
19/08:00pm 30.6 26.6 15.2 39 9.7 ESE 30 43 16 23 1010.6 - 0.0
19/07:30pm 30.9 29.1 15.4 39 9.8 ESE 19 33 10 18 1010.6 - 0.0
19/07:00pm 31.2 28.1 15.6 39 9.9 SE 26 39 14 21 1009.8 - 0.0
19/06:30pm 32.3 28.4 15.6 36 10.6 ESE 30 43 16 23 1009.1 - 0.0
19/06:00pm 33.9 29.3 14.7 31 12.1 SSE 32 46 17 25 1009.1 1005.2 0.0
19/05:40pm 35.6 30.9 14.4 28 13.4 S 32 52 17 28 1008.9 - 0.0
19/05:35pm 36.7 32.0 13.3 24 14.6 S 30 43 16 23 1008.6 - 0.0
19/05:30pm 36.8 35.1 13.5 24 14.6 ESE 15 19 8 10 1008.4 - 0.0
19/05:00pm 37.0 34.5 13.6 24 14.7 E 19 24 10 13 1007.9 - 0.0
19/04:30pm 37.2 34.3 14.1 25 14.6 E 22 30 12 16 1007.6 - 0.0
19/04:00pm 37.8 34.8 12.5 22 15.7 E 20 28 11 15 1007.7 - 0.0
19/03:30pm 39.9 38.5 11.0 17 17.6 SE 9 15 5 8 1007.9 - 0.0
19/03:00pm 39.1 38.4 11.9 19 16.8 SE 7 13 4 7 1008.1 1004.2 0.0
19/02:30pm 36.2 32.2 13.0 24 14.4 S 26 39 14 21 1008.6 - 0.0
19/02:00pm 36.5 34.8 11.3 22 15.3 E 11 33 6 18 1008.8 - 0.0
19/01:30pm 38.4 38.0 13.0 22 15.9 E 7 15 4 8 1009.1 - 0.0
19/01:00pm 37.6 36.9 11.9 21 15.8 NE 7 13 4 7 1010.2 - 0.0
19/12:30pm 36.8 36.0 12.8 23 14.9 NNE 9 13 5 7 1010.8 - 0.0
19/12:00pm 36.3 34.7 13.9 26 14.1 NNE 15 20 8 11 1011.0 1007.1 0.0
19/11:30am 36.6 34.5 14.6 27 14.0 NNE 19 28 10 15 1011.2 - 0.0
19/11:00am 36.4 35.1 14.7 27 13.8 NE 15 24 8 13 1011.6 - 0.0

Other Formats:

Comma delimited format used in spreadsheet applications
http://www.bom.gov.au/fwo/IDW60801/IDW60801.94430.axf

JavaScript Object Notation format (JSON) in row-major order
http://www.bom.gov.au/fwo/IDW60801/IDW60801.94430.json